This is the latest recevied weather packets stored in our database for station/object OE9FWV-10. If no packets are shown the sender has not sent any weather packets the latest 10 day(s).
| Time | Temp. | Humidity | Pressure | Rain* | Wind** | Luminosity | Snow |
|---|---|---|---|---|---|---|---|
| 1787828926 | 33.33° C | 26% | 1016.5 hPa | - | - | - | - |
| 1787828025 | 33.33° C | 26% | 1016.7 hPa | - | - | - | - |
| 1787827125 | 32.78° C | 27% | 1016.8 hPa | - | - | - | - |
| 1787826225 | 32.22° C | 27% | 1016.9 hPa | - | - | - | - |
| 1787825325 | 31.67° C | 27% | 1016.9 hPa | - | - | - | - |
| 1787824425 | 32.22° C | 27% | 1016.9 hPa | - | - | - | - |
| 1787823525 | 31.67° C | 28% | 1017.1 hPa | - | - | - | - |
| 1787822625 | 30.56° C | 29% | 1017.2 hPa | - | - | - | - |
| 1787821725 | 30° C | 29% | 1017.4 hPa | - | - | - | - |
| 1787820825 | 30° C | 30% | 1017.5 hPa | - | - | - | - |
| 1787819925 | 29.44° C | 29% | 1017.5 hPa | - | - | - | - |
| 1787819025 | 29.44° C | 30% | 1017.5 hPa | - | - | - | - |
| 1787818125 | 29.44° C | 30% | 1017.7 hPa | - | - | - | - |
| 1787817225 | 29.44° C | 30% | 1017.6 hPa | - | - | - | - |
| 1787816325 | 28.89° C | 30% | 1017.8 hPa | - | - | - | - |
| 1787815425 | 28.89° C | 30% | 1017.7 hPa | - | - | - | - |
| 1787814525 | 28.89° C | 30% | 1017.6 hPa | - | - | - | - |
| 1787813624 | 28.89° C | 30% | 1017.4 hPa | - | - | - | - |
| 1787812724 | 28.33° C | 29% | 1017.5 hPa | - | - | - | - |
| 1787811824 | 28.33° C | 29% | 1017.5 hPa | - | - | - | - |
| 1787810924 | 28.33° C | 30% | 1017.6 hPa | - | - | - | - |
| 1787810024 | 28.33° C | 30% | 1017.7 hPa | - | - | - | - |
| 1787809124 | 28.33° C | 30% | 1017.6 hPa | - | - | - | - |
| 1787808224 | 28.33° C | 29% | 1017.5 hPa | - | - | - | - |
| 1787807324 | 28.33° C | 30% | 1017.2 hPa | - | - | - | - |
* Rain since midnight (hover to see other rain measurements)
** Current wind speed in m/s (hover to see current wind gust speed)